Aeroporto :
LOGIN :

Iscrizione | Disclaimer

   EN    FR    IT 

 










Sommario :    VFR   VFR Marginale   IFR   IFR Intensivo   IFR Molto Intensivo
Visibilità : 
Base nubi : 
>= 8 km
>= 3000ft
5 / 8 km
1000 / 3000 ft
1500m / 5 km
500 / 1000 ft
800 / 1500m
200 / 500 ft
< 800m
< 200 ft
Simboli :   Temporali  Nebbia  Neve Forte  Precipitazioni Forti  Vento > 20 kt
SIGMETs :   Varie  Temporali  Ghiacco  Turbolenza  Onda orograficha  Ceneri Vulcaniche






- Altitudine del aeroporto : 200 ft


EBBL - Klein Brogel AB

ULTIMO METAR :
  • 100525Z 04005KT 9999 FEW250 07/06 Q1026 BLU BLU

METARs OBSOLETI :
  • 100519Z 04005KT 9999 FEW250 07/05 Q1026 BLU BLU
  • 100455Z AUTO 04004KT 7000 NCD 07/05 Q1026 WHT
  • 100425Z AUTO 03003KT 7000 NCD 07/05 Q1026 WHT
  • 100404Z AUTO 03004KT 7000 NCD 07/05 Q1026 WHT
  • 100355Z AUTO 03003KT 8000 NCD 07/06 Q1026 BLU

TAF TAF EBBL
Valido dal 09 a 19 ore il 10 a 07 ore UTC


091541Z 0919/1007 03008KT 9999 SKC



MetMap, La meteo Aeronautica in un colpo d'occhio ! - Copyright ORBIFLY Dicembre 2007 - Disclaimer

ORBIFLY MET'MAP TEAM :

Programmazione e sviluppo : Alexandra Zaïnal
Concezione : Baudouin d'Aumeries
Aiuto per la programmazione : Marc-Olivier Méhu
Supporto tecnico e logistico : Manuel Goepfert
Aiuto per la traduzione : Arnaldo La Scala

Contatto : metmap@orbifly.com




FONTI E CREDITI :

   NOAA